PROGRESS-MS 06 (42756 NORAD) Tracking and Keplerian Element Data

This shows tracking and keplerian element data for the satellite.

Feedback or suggestion? Click here.




ElementValue
Catalog42756
NamePROGRESS-MS 06
Epoch Orbit3051
Epoch Day361.53692593
Epoch Year2017
RAAN154.4377
Inclination51.6414
Eccentricity0.0002507
Argument of Perigee297.8505
Mean Anonmoly171.2653
Mean Motion15.5422135
Decay Rate1.778E-05
L11 42756U 17033A 17361.53692593 .00001778 00000-0 33974-4 0 9991
L22 42756 51.6414 154.4377 0002507 297.8505 171.2653 15.54221350 30510



Live tracking and technical data element details for PROGRESS-MS 06 (NORAD 42756). PROGRESS-MS 06 can be tracked NOW for your location showing map with azimuth and elevation plus other details from your city location.







IsCatalogInMostPopularTable: catalog: 42756, numindb: 683
Update: records affected: 1



GetName: 42756 PROGRESS-MS 06

Hit Count: updated at: Mon, 17 Jun 2024 23:20:52 GMT